FW5910 Weather Reports


time (UTC)temp
F
wind
direction
speed
knots
gust
knots
rain 1hr
in
rain 24hr
in
rain mn
in
humidity
%
barometer
mb
20260906052801 58 250 1.7 5.2 0.07 0.07 0.07 67 1016.6
20260906052305 57 0 2.6 5.2 0.07 0.07 0.07 71 1016.6
20260906051802 57 0 2.6 5.2 0.07 0.07 0.07 71 1016.7
20260906051301 58 0 2.6 5.2 0.07 0.07 0.07 71 1016.8
20260906050802 57 0 2.6 4.3 0.07 0.07 0.07 71 1016.8
20260906050300 58 0 2.6 5.2 0.07 0.07 0.07 71 1016.9
20260906045801 58 0 1.7 5.2 0.07 0.07 0.07 71 1017.1
20260906045305 59 0 1.7 4.3 0.07 0.07 0.07 68 1017.2
20260906044302 61 0 1.7 4.3 0.07 0.07 0.06 63 1017.7
20260906043803 64 0 2.6 7.8 0.03 0.03 0.02 57 1017.5
20260906042801 67 213 1.7 9.6 0.00 0.00 0.00 46 1017.2
20260906042301 68 163 2.6 11.3 0.00 0.00 0.00 45 1016.7
20260906041801 68 140 3.5 11.3 0.00 0.00 0.00 43 1016.7
20260906041301 68 124 4.3 9.6 0.00 0.00 0.00 45 1016.7
20260906040801 68 207 5.2 9.6 0.00 0.00 0.00 44 1016.6
20260906040301 66 0 2.6 9.6 0.00 0.00 0.00 45 1016.5
20260906035801 64 0 0.9 8.7 0.00 0.00 0.00 52 1016.3
20260906035305 63 0 0.9 2.6 0.00 0.00 0.00 49 1016.4
20260906034801 63 0 1.7 3.5 0.00 0.00 0.00 51 1016.2
20260906034301 63 0 1.7 3.5 0.00 0.00 0.00 51 1016.3
20260906033302 63 0 1.7 3.5 0.00 0.00 0.00 54 1016.2
20260906032801 63 0 1.7 4.3 0.00 0.00 0.00 52 1016.1
20260906032305 63 0 0.0 4.3 0.00 0.00 0.00 51 1016.0
20260906031801 63 0 0.0 0.0 0.00 0.00 0.00 53 1016.1
20260906031300 63 0 0.0 0.0 0.00 0.00 0.00 54 1016.0
20260906030803 63 0 0.0 0.0 0.00 0.00 0.00 59 1015.9
20260906030300 63 0 0.0 0.0 0.00 0.00 0.00 58 1015.9
20260906025802 63 0 0.0 0.0 0.00 0.00 0.00 58 1015.9
20260906025306 64 0 0.0 0.0 0.00 0.00 0.00 57 1015.9
20260906024803 64 0 0.0 0.0 0.00 0.00 0.00 56 1015.9
20260906024301 64 0 0.0 0.0 0.00 0.00 0.00 55 1015.7
20260906023803 64 0 0.0 0.0 0.00 0.00 0.00 53 1015.6
20260906023301 65 0 0.0 0.0 0.00 0.00 0.00 53 1015.6
20260906022301 65 0 0.0 0.0 0.00 0.00 0.00 48 1015.4
20260906021803 66 0 0.0 0.0 0.00 0.00 0.00 47 1015.4
20260906021303 66 0 0.0 0.0 0.00 0.00 0.00 47 1015.4
20260906020801 66 0 0.0 0.0 0.00 0.00 0.00 45 1015.4
20260906020300 66 0 0.0 1.7 0.00 0.00 0.00 48 1015.4
20260906015802 67 0 0.0 1.7 0.00 0.00 0.00 46 1015.3
20260906015305 67 0 0.0 0.0 0.00 0.00 0.00 43 1015.3
20260906014302 68 0 0.0 0.0 0.00 0.00 0.00 43 1015.5
20260906013301 68 0 0.9 2.6 0.00 0.00 0.00 42 1015.5
20260906012301 68 0 0.9 1.7 0.00 0.00 0.00 40 1015.6
20260906011300 69 38 0.0 1.7 0.00 0.00 0.00 42 1015.5
20260906010803 69 38 0.9 2.6 0.00 0.00 0.00 41 1015.4
20260906005801 69 343 1.7 3.5 0.00 0.00 0.00 37 1015.5
20260906005301 70 345 1.7 4.3 0.00 0.00 0.00 37 1015.4
20260906004804 70 348 1.7 4.3 0.00 0.00 0.00 37 1015.5
20260906004302 70 331 1.7 3.5 0.00 0.00 0.00 37 1015.4
20260906003303 71 26 1.7 3.5 0.00 0.00 0.00 38 1015.4
20260906002803 71 331 0.9 3.5 0.00 0.00 0.00 36 1015.6
20260906002300 72 317 0.9 3.5 0.00 0.00 0.00 34 1015.6
20260906001801 73 355 0.9 2.6 0.00 0.00 0.00 32 1015.7
20260906000801 75 16 0.0 1.7 0.00 0.00 0.00 31 1015.7
20260906000300 75 25 0.0 1.7 0.00 0.00 0.00 32 1015.9
20260905235301 75 32 0.0 1.7 0.00 0.00 0.00 32 1015.9
20260905234757 74 33 0.0 0.9 0.00 0.00 0.00 30 1016.0
20260905233746 74 64 0.0 1.7 0.00 0.00 0.00 34 1016.1
20260905233239 74 55 0.0 1.7 0.00 0.00 0.00 33 1016.1
20260905232239 72 355 0.0 2.6 0.00 0.00 0.00 34 1016.2
20260905231238 71 22 0.9 1.7 0.00 0.00 0.00 36 1016.2
20260905230737 71 38 0.9 2.6 0.00 0.00 0.00 37 1016.3
20260905230237 71 38 0.9 2.6 0.00 0.00 0.00 34 1016.4
20260905225738 71 42 0.9 2.6 0.00 0.00 0.00 33 1016.4
20260905225238 71 68 0.9 2.6 0.00 0.00 0.00 33 1016.4
20260905224235 71 208 1.7 5.2 0.00 0.00 0.00 33 1016.5
20260905223735 71 214 0.9 5.2 0.00 0.00 0.00 36 1016.5
20260905223232 72 67 0.9 2.6 0.00 0.00 0.00 36 1016.6
20260905221730 71 85 0.0 0.0 0.00 0.00 0.00 36 1016.7
20260905220731 71 88 0.9 3.5 0.00 0.00 0.00 35 1016.8
20260905215723 71 283 1.7 5.2 0.00 0.00 0.00 34 1017.1
20260905215217 70 327 0.9 3.5 0.00 0.00 0.00 34 1017.1
20260905214711 69 275 0.9 3.5 0.00 0.00 0.00 39 1017.2
20260905214204 69 113 1.7 5.2 0.00 0.00 0.00 39 1017.2
20260905213705 69 112 1.7 5.2 0.00 0.00 0.00 37 1017.3
20260905213205 69 206 1.7 3.5 0.00 0.00 0.00 37 1017.3
20260905212707 69 115 0.9 3.5 0.00 0.00 0.00 38 1017.4
20260905212203 69 131 0.9 3.5 0.00 0.00 0.00 40 1017.4
20260905211703 69 71 0.9 3.5 0.00 0.00 0.00 40 1017.4
20260905211204 69 103 0.9 3.5 0.00 0.00 0.00 39 1017.5
20260905210703 69 228 1.7 4.3 0.00 0.00 0.00 41 1017.5
20260905210202 68 256 1.7 4.3 0.00 0.00 0.00 39 1017.6
20260905205701 68 312 1.7 3.5 0.00 0.00 0.00 38 1017.5
20260905205201 68 82 0.9 2.6 0.00 0.00 0.00 40 1017.5
20260905204702 68 93 0.9 2.6 0.00 0.00 0.00 45 1017.6
20260905204201 67 93 1.7 2.6 0.00 0.00 0.00 44 1017.6
20260905203702 67 114 0.9 2.6 0.00 0.00 0.00 44 1017.6
20260905203201 66 114 0.9 5.2 0.00 0.00 0.00 46 1017.6
20260905202702 65 125 1.7 5.2 0.00 0.00 0.00 47 1017.7
20260905201703 66 125 1.7 5.2 0.00 0.00 0.00 45 1017.8
20260905201201 67 196 0.9 1.7 0.00 0.00 0.00 46 1017.8
20260905200701 67 285 0.9 2.6 0.00 0.00 0.00 46 1017.8
20260905200201 65 281 0.9 2.6 0.00 0.00 0.00 49 1017.8
20260905195203 64 95 2.6 5.2 0.00 0.00 0.00 50 1017.9
20260905194703 64 118 1.7 3.5 0.00 0.00 0.00 51 1017.9
20260905194202 63 108 0.9 1.7 0.00 0.00 0.00 54 1018.0
20260905193702 63 109 0.9 2.6 0.00 0.00 0.00 54 1017.9
20260905193201 63 109 0.9 2.6 0.00 0.00 0.00 54 1018.0
20260905192701 62 109 1.7 2.6 0.00 0.00 0.00 55 1018.1
20260905192201 61 109 2.6 3.5 0.00 0.00 0.00 56 1018.1
20260905191702 61 109 2.6 3.5 0.00 0.00 0.00 56 1018.1
20260905191201 61 102 1.7 3.5 0.00 0.00 0.00 56 1018.3
20260905190701 62 86 0.9 2.6 0.00 0.00 0.00 56 1018.3
20260905190202 62 85 0.9 2.6 0.00 0.00 0.00 56 1018.4
20260905185702 62 65 0.9 2.6 0.00 0.00 0.00 56 1018.4
20260905184701 61 95 0.9 3.5 0.00 0.00 0.00 57 1018.4
20260905183201 60 25 0.9 3.5 0.00 0.00 0.00 59 1018.4
20260905182700 59 0 1.7 4.3 0.00 0.00 0.00 62 1018.5
20260905182204 58 0 1.7 4.3 0.00 0.00 0.00 61 1018.4
20260905181204 58 0 1.7 4.3 0.00 0.00 0.00 62 1018.5
20260905180707 57 0 1.7 3.5 0.00 0.00 0.00 64 1018.6
20260905180205 57 0 1.7 4.3 0.00 0.00 0.00 63 1018.7
20260905175704 57 0 1.7 4.3 0.00 0.00 0.00 63 1018.7
20260905175204 57 0 0.9 2.6 0.00 0.00 0.00 66 1018.9
20260905174704 56 0 0.0 1.7 0.00 0.00 0.00 66 1018.8
20260905174204 56 0 0.9 1.7 0.00 0.00 0.00 67 1018.8
20260905173707 56 0 0.9 3.5 0.00 0.00 0.00 67 1018.8
20260905173203 55 0 1.7 3.5 0.00 0.00 0.00 68 1018.8
20260905172704 55 0 1.7 3.5 0.00 0.00 0.00 67 1018.8
20260905172200 55 0 1.7 5.2 0.00 0.00 0.00 67 1018.8
20260905171148 54 0 0.9 3.5 0.00 0.00 0.00 68 1018.8
20260905170640 54 0 0.9 3.5 0.00 0.00 0.00 69 1018.8
20260905170145 54 0 0.9 2.6 0.00 0.00 0.00 69 1018.8
20260905165641 54 0 0.9 3.5 0.00 0.00 0.00 69 1018.8
20260905164641 53 0 0.0 1.7 0.00 0.00 0.00 70 1018.8
20260905163639 53 0 1.7 4.3 0.00 0.00 0.00 70 1018.7
20260905163139 53 0 0.9 3.5 0.00 0.00 0.00 70 1018.7
20260905162640 52 0 0.9 2.6 0.00 0.00 0.00 70 1018.7
20260905162138 52 340 0.0 1.7 0.00 0.00 0.00 70 1018.6
20260905161636 52 339 0.0 2.6 0.00 0.00 0.00 70 1018.7
20260905161133 52 339 0.9 4.3 0.00 0.00 0.00 71 1018.8
20260905160131 52 343 0.9 2.6 0.00 0.00 0.00 73 1018.8
20260905155630 52 348 0.0 2.6 0.00 0.00 0.00 74 1018.7
20260905155130 51 325 0.0 0.0 0.00 0.00 0.00 74 1018.6
20260905154630 51 318 0.0 0.0 0.00 0.00 0.00 74 1018.6
20260905154129 51 259 0.0 0.0 0.00 0.00 0.00 74 1018.5
20260905153130 51 247 0.0 0.0 0.00 0.00 0.00 74 1018.6
20260905152626 51 246 0.0 0.0 0.00 0.00 0.00 74 1018.5
20260905152127 51 246 0.0 0.0 0.00 0.00 0.00 73 1018.6
20260905151627 51 246 0.0 0.0 0.00 0.00 0.00 73 1018.6
20260905151128 51 246 0.0 0.0 0.00 0.00 0.00 73 1018.6
20260905150625 51 246 0.0 0.0 0.00 0.01 0.00 73 1018.7
20260905150123 51 246 0.0 0.9 0.00 0.01 0.00 73 1018.6
20260905145622 51 246 0.0 1.7 0.00 0.01 0.00 73 1018.5
20260905144116 51 246 0.0 1.7 0.00 0.03 0.00 73 1018.3
20260905143612 51 246 0.9 2.6 0.00 0.05 0.00 72 1018.3
20260905143112 51 246 0.0 2.6 0.00 0.05 0.00 72 1018.4
20260905142609 51 246 0.0 0.0 0.00 0.05 0.00 72 1018.4
20260905142108 51 246 0.0 0.0 0.00 0.06 0.00 72 1018.3
20260905141605 51 246 0.0 0.0 0.00 0.07 0.00 72 1018.1
20260905141105 51 246 0.0 0.0 0.00 0.07 0.00 72 1018.1
20260905140603 51 246 0.0 0.0 0.00 0.08 0.00 72 1017.9
20260905140104 51 246 0.0 0.0 0.00 0.08 0.00 72 1017.8
20260905135103 51 246 0.9 3.5 0.00 0.09 0.00 72 1017.6
20260905134603 51 246 1.7 4.3 0.00 0.09 0.00 72 1017.6
20260905134106 51 246 1.7 4.3 0.00 0.09 0.00 72 1017.6
20260905133603 51 226 0.9 3.5 0.00 0.09 0.00 72 1017.6
20260905132601 51 312 0.9 2.6 0.00 0.09 0.00 72 1017.7
20260905132101 51 312 0.9 2.6 0.00 0.10 0.00 71 1017.6
20260905131603 51 313 0.9 1.7 0.00 0.10 0.00 72 1017.5
20260905130559 51 313 0.9 2.6 0.00 0.10 0.00 71 1017.1
20260905130100 51 285 1.7 4.3 0.00 0.10 0.00 72 1017.1
20260905125559 51 288 1.7 4.3 0.00 0.10 0.00 72 1016.6
20260905125058 51 67 1.7 3.5 0.00 0.10 0.00 72 1016.5
20260905124559 51 344 2.6 5.2 0.00 0.10 0.00 71 1016.5
20260905124100 51 337 2.6 5.2 0.00 0.10 0.00 71 1016.5
20260905123600 51 333 0.9 3.5 0.00 0.10 0.00 72 1016.4
20260905122559 51 90 0.9 3.5 0.00 0.11 0.00 71 1016.6
20260905122052 51 69 0.0 2.6 0.00 0.11 0.00 72 1016.8
20260905121551 51 61 0.0 2.6 0.00 0.11 0.00 73 1016.8
20260905120549 51 275 0.0 0.9 0.00 0.11 0.00 73 1016.8
20260905120050 51 275 0.9 2.6 0.00 0.11 0.00 73 1016.9
20260905115548 51 275 0.9 2.6 0.00 0.11 0.00 73 1016.5
20260905115049 51 263 0.0 2.6 0.00 0.11 0.00 73 1016.7
20260905114550 51 234 0.0 0.0 0.00 0.11 0.00 73 1016.9
20260905114047 51 234 0.0 0.9 0.00 0.11 0.00 73 1016.9
20260905113547 51 233 0.0 0.9 0.00 0.11 0.00 73 1016.8
20260905112547 51 233 0.9 3.5 0.00 0.11 0.00 73 1016.8
20260905112046 51 234 0.9 4.3 0.00 0.11 0.00 72 1016.7
20260905111545 51 229 1.7 4.3 0.00 0.11 0.00 72 1016.6
20260905111044 51 215 0.9 4.3 0.00 0.11 0.00 73 1016.7
20260905110544 51 154 0.0 2.6 0.00 0.11 0.00 73 1016.7
20260905110046 51 205 0.0 0.0 0.00 0.11 0.00 73 1016.9
20260905105546 51 219 0.0 0.0 0.00 0.11 0.00 73 1016.8
20260905105043 51 212 0.0 0.0 0.00 0.11 0.00 72 1016.6
20260905104544 51 202 0.0 0.0 0.00 0.11 0.00 73 1016.6
20260905104043 51 194 0.0 0.0 0.00 0.11 0.00 73 1016.6
20260905103541 51 336 0.0 0.0 0.00 0.11 0.00 72 1016.5
20260905103039 51 339 0.0 0.0 0.00 0.11 0.00 72 1016.0
20260905102539 51 339 0.0 0.0 0.00 0.11 0.00 72 1016.1
20260905101539 51 339 0.0 0.0 0.00 0.11 0.00 72 1016.1
20260905101040 51 339 0.0 0.0 0.00 0.11 0.00 72 1016.1
20260905100539 51 339 0.0 0.0 0.00 0.11 0.00 72 1015.9
20260905100039 51 342 0.0 0.0 0.00 0.11 0.00 72 1015.9
20260905095540 51 343 0.0 0.0 0.00 0.11 0.00 72 1016.0
20260905095036 51 342 0.0 0.0 0.00 0.11 0.00 72 1016.0
20260905094534 51 342 0.0 0.0 0.00 0.11 0.00 71 1016.1
20260905094035 51 343 0.0 0.0 0.00 0.11 0.00 71 1016.2
20260905093535 51 342 0.0 0.0 0.00 0.11 0.00 71 1016.1
20260905092535 51 342 0.0 0.0 0.00 0.11 0.00 71 1016.2
20260905092034 51 343 0.0 0.0 0.00 0.11 0.00 71 1016.4
20260905091534 51 344 0.0 0.0 0.00 0.11 0.00 72 1016.4
20260905091035 51 344 0.0 0.0 0.00 0.11 0.00 72 1016.3
20260905090534 51 344 0.0 0.0 0.00 0.11 0.00 72 1015.9
20260905090034 51 344 0.0 0.0 0.00 0.11 0.00 72 1015.7
20260905085534 51 344 0.0 0.0 0.00 0.11 0.00 71 1016.0
20260905085035 51 343 0.0 0.0 0.00 0.11 0.00 72 1016.0
20260905084535 51 343 0.0 0.0 0.00 0.11 0.00 72 1016.2
20260905084036 51 343 0.0 0.0 0.00 0.11 0.00 72 1016.3
20260905083035 51 342 0.0 0.0 0.00 0.11 0.00 72 1016.3
20260905082535 51 344 0.0 0.0 0.00 0.11 0.00 72 1016.3
20260905082035 51 344 0.0 0.0 0.00 0.11 0.00 72 1016.2
20260905081537 51 344 0.0 0.0 0.00 0.11 0.00 72 1016.2
20260905081036 51 344 0.0 0.0 0.00 0.11 0.00 71 1016.3
20260905080536 51 344 0.0 0.0 0.00 0.11 0.00 72 1016.3
20260905075534 51 10 0.0 0.0 0.00 0.11 0.00 72 1016.4
20260905075037 52 11 0.0 0.0 0.00 0.11 0.00 71 1016.3
20260905073531 52 11 0.0 0.0 0.00 0.11 0.00 71 1016.4
20260905072529 52 11 0.0 0.0 0.00 0.11 0.00 69 1016.8
20260905071529 52 11 0.0 0.0 0.00 0.11 0.00 71 1016.8
20260905071031 52 12 0.0 0.0 0.00 0.11 0.00 71 1016.7
20260905070529 52 12 0.0 0.0 0.00 0.11 0.00 71 1016.6
20260905065531 51 12 0.0 0.0 0.00 0.11 0.00 70 1016.4
20260905065033 52 9 0.0 0.0 0.00 0.11 0.00 71 1016.2
20260905064531 52 9 0.0 0.0 0.00 0.11 0.00 70 1016.1
20260905064029 53 9 0.0 0.0 0.00 0.11 0.00 70 1015.9
20260905063532 53 9 0.0 0.0 0.00 0.11 0.00 70 1015.7
20260905062029 53 90 0.0 0.0 0.00 0.11 0.00 70 1016.2
20260905061530 53 90 0.0 0.0 0.00 0.11 0.00 69 1016.1
20260905061029 54 90 0.0 0.0 0.00 0.11 0.00 69 1016.0
20260905060529 54 90 0.0 0.0 0.00 0.11 0.00 69 1016.1
20260905060029 54 46 0.0 0.0 0.00 0.11 0.00 67 1016.2
20260905055529 54 46 0.0 0.0 0.00 0.11 0.11 67 1016.2
20260905055030 54 46 0.0 0.0 0.00 0.11 0.11 66 1016.2
20260905054529 54 46 0.0 0.0 0.00 0.11 0.11 66 1016.3
20260905053530 55 46 0.0 0.0 0.00 0.11 0.11 66 1016.5